Satellite-Ground Cal/Val Site Overpasses Predictions

Prediction of Satellite NPP Overpassing Cal/Val Site: Antarctic Dome C

Ground Cal/Val Site Location: Latitude: -75.10, Longitude: 123.35; Satellite-Ground Site NADIR distance within 100 km.

Table of predicted overpasses for the next 14.0 days since TLE Epoch: 5/12/2017
Interval Starting Time Ending Time Minimum Distance Time Minimum Distance (km)
1 05/13/2017 07:24:59 05/13/2017 07:25:26 05/13/2017 07:25:13 38.61
2 05/15/2017 15:07:26 05/15/2017 15:07:34 05/15/2017 15:07:30 95.35
3 05/16/2017 14:48:25 05/16/2017 14:48:54 05/16/2017 14:48:39 16.11
4 05/18/2017 07:31:14 05/18/2017 07:31:44 05/18/2017 07:31:29 1.90
5 05/21/2017 14:54:42 05/21/2017 14:55:11 05/21/2017 14:54:57 20.71
6 05/22/2017 14:36:00 05/22/2017 14:36:14 05/22/2017 14:36:07 86.33
7 05/23/2017 07:37:32 05/23/2017 07:38:00 05/23/2017 07:37:46 34.07
8 05/24/2017 07:18:47 05/24/2017 07:19:06 05/24/2017 07:18:57 76.02


NCC Satellite Cal/Val Overpasses Prediction Service
